TimeEST,TemperatureF,Dew PointF,Humidity,Sea Level PressureIn,VisibilityMPH,Wind Direction,Wind SpeedMPH,Gust SpeedMPH,PrecipitationIn,Events,Conditions,WindDirDegrees,DateUTC
12:53 AM,42.1,34.0,73,30.27,10.0,North,8.1,-,N/A,,Clear,10,2013-11-20 05:53:00
1:53 AM,42.1,34.0,73,30.27,10.0,NNE,8.1,-,N/A,,Partly Cloudy,20,2013-11-20 06:53:00
2:53 AM,42.1,33.1,70,30.27,10.0,NNE,10.4,-,N/A,,Clear,20,2013-11-20 07:53:00
3:53 AM,42.1,33.1,70,30.30,10.0,North,5.8,-,N/A,,Mostly Cloudy,10,2013-11-20 08:53:00
4:53 AM,42.1,32.0,67,30.27,10.0,NNE,15.0,-,N/A,,Partly Cloudy,30,2013-11-20 09:53:00
5:53 AM,42.1,30.9,65,30.29,10.0,NNE,11.5,-,N/A,,Clear,20,2013-11-20 10:53:00
6:53 AM,42.1,30.9,65,30.31,10.0,NNE,10.4,-,N/A,,Clear,20,2013-11-20 11:53:00
7:53 AM,44.1,32.0,63,30.33,10.0,NNE,9.2,-,N/A,,Scattered Clouds,30,2013-11-20 12:53:00
8:53 AM,45.0,33.1,63,30.35,10.0,NNE,12.7,-,N/A,,Partly Cloudy,20,2013-11-20 13:53:00
9:53 AM,51.1,36.0,56,30.35,10.0,NNE,13.8,-,N/A,,Mostly Cloudy,30,2013-11-20 14:53:00
10:53 AM,55.0,37.0,51,30.35,10.0,NNE,13.8,20.7,N/A,,Clear,30,2013-11-20 15:53:00
11:53 AM,57.0,37.9,49,30.33,10.0,NNE,16.1,-,N/A,,Overcast,20,2013-11-20 16:53:00
12:53 PM,59.0,39.9,49,30.32,10.0,NNE,12.7,19.6,N/A,,Overcast,20,2013-11-20 17:53:00
1:53 PM,59.0,41.0,51,30.33,10.0,North,10.4,-,N/A,,Overcast,360,2013-11-20 18:53:00
2:53 PM,60.1,41.0,49,30.31,10.0,NNE,13.8,-,N/A,,Overcast,30,2013-11-20 19:53:00
3:53 PM,57.9,42.1,56,30.32,10.0,NNE,16.1,-,N/A,,Clear,30,2013-11-20 20:53:00
4:53 PM,55.9,43.0,62,30.33,10.0,NNE,9.2,-,N/A,,Clear,30,2013-11-20 21:53:00
5:53 PM,54.0,43.0,66,30.35,10.0,NNE,9.2,-,N/A,,Clear,20,2013-11-20 22:53:00
6:53 PM,52.0,43.0,71,30.35,10.0,NNE,9.2,-,N/A,,Clear,30,2013-11-20 23:53:00
7:53 PM,50.0,42.1,74,30.36,10.0,NNE,9.2,-,N/A,,Clear,30,2013-11-21 00:53:00
8:53 PM,48.9,42.1,77,30.36,10.0,NNE,8.1,-,N/A,,Clear,30,2013-11-21 01:53:00
9:53 PM,46.9,41.0,80,30.38,10.0,North,6.9,-,N/A,,Clear,10,2013-11-21 02:53:00
10:53 PM,48.0,41.0,77,30.38,10.0,NNE,8.1,-,N/A,,Clear,20,2013-11-21 03:53:00
11:53 PM,46.9,41.0,80,30.37,10.0,NE,11.5,-,N/A,,Clear,40,2013-11-21 04:53:00